TimeEST,TemperatureF,Dew PointF,Humidity,Sea Level PressureIn,VisibilityMPH,Wind Direction,Wind SpeedMPH,Gust SpeedMPH,PrecipitationIn,Events,Conditions,WindDirDegrees,DateUTC
12:51 AM,17.1,14.0,88,30.25,9.0,Calm,Calm,-,0.01,,Clear,0,2013-01-03 05:51:00
1:51 AM,19.0,15.1,85,30.25,9.0,Calm,Calm,-,N/A,,Clear,0,2013-01-03 06:51:00
2:51 AM,17.1,12.9,84,30.25,7.0,Calm,Calm,-,N/A,,Clear,0,2013-01-03 07:51:00
3:51 AM,16.0,12.9,88,30.26,7.0,Calm,Calm,-,N/A,,Clear,0,2013-01-03 08:51:00
4:51 AM,15.1,12.0,88,30.25,7.0,Calm,Calm,-,N/A,,Clear,0,2013-01-03 09:51:00
5:51 AM,12.0,9.0,88,30.28,7.0,Calm,Calm,-,N/A,,Clear,0,2013-01-03 10:51:00
6:51 AM,10.9,7.0,84,30.28,8.0,Calm,Calm,-,N/A,,Clear,0,2013-01-03 11:51:00
7:51 AM,10.0,7.0,87,30.30,6.0,Calm,Calm,-,N/A,,Clear,0,2013-01-03 12:51:00
8:51 AM,14.0,10.0,84,30.31,5.0,Calm,Calm,-,N/A,,Clear,0,2013-01-03 13:51:00
9:51 AM,18.0,14.0,84,30.30,7.0,Calm,Calm,-,N/A,,Clear,0,2013-01-03 14:51:00
11:51 AM,26.1,16.0,66,30.26,10.0,Calm,Calm,-,N/A,,Clear,0,2013-01-03 16:51:00
12:51 PM,30.0,15.1,54,30.22,10.0,SW,3.5,-,N/A,,Clear,230,2013-01-03 17:51:00
1:37 PM,32.0,17.6,55,30.11,2.5,North,-9999.0,-,N/A,,Haze,0,2013-01-03 18:37:00
1:46 PM,32.0,17.6,55,30.11,10.0,West,5.8,-,N/A,,Clear,270,2013-01-03 18:46:00
1:51 PM,32.0,17.1,54,30.20,10.0,WSW,5.8,-,N/A,,Clear,250,2013-01-03 18:51:00
2:51 PM,33.8,17.6,52,30.11,10.0,West,8.1,-,N/A,,Clear,270,2013-01-03 19:51:00
3:51 PM,32.0,18.0,56,30.22,10.0,WSW,11.5,-,N/A,,Clear,240,2013-01-03 20:51:00
4:51 PM,30.9,17.1,57,30.25,10.0,West,6.9,-,N/A,,Clear,260,2013-01-03 21:51:00
5:51 PM,28.9,16.0,58,30.26,10.0,Calm,Calm,-,N/A,,Clear,0,2013-01-03 22:51:00
6:51 PM,21.0,15.1,78,30.30,9.0,Calm,Calm,-,N/A,,Clear,0,2013-01-03 23:51:00
7:51 PM,23.0,16.0,74,30.30,10.0,Calm,Calm,-,N/A,,Clear,0,2013-01-04 00:51:00
8:51 PM,30.0,17.1,59,30.28,10.0,WSW,9.2,-,N/A,,Overcast,240,2013-01-04 01:51:00
9:51 PM,30.0,17.1,59,30.28,10.0,Variable,3.5,-,N/A,,Overcast,0,2013-01-04 02:51:00
10:51 PM,30.0,17.1,59,30.28,10.0,WNW,8.1,-,N/A,,Overcast,300,2013-01-04 03:51:00
11:51 PM,28.9,17.1,61,30.27,10.0,Variable,6.9,-,N/A,,Overcast,0,2013-01-04 04:51:00